User: anonymous   Login
Location: Gipe Farm
(40.9466°N, 95.5370°W)
Time: 18:27:11
(UTC-06:00)
Language:

Cosmos 2082 Rocket - Orbit

View from above orbital plane
View from above orbital plane
View from above satellite
View from above satellite

Ground track
Ground track

The orbit data is extracted from the following two-line orbital elements,

1 20625U 90046B   15056.54437300 -.00000252  00000-0 -10609-3 0  9997
2 20625 070.9987 117.6059 0016599 302.8065 157.1179 14.14564494278673
Epoch (UTC): 25 February 2015 13:03:53
Eccentricity: 0.0016599
inclination: 70.9987°
perigee height: 832 km
apogee height: 856 km
right ascension of ascending node: 117.6059°
argument of perigee: 302.8065°
revolutions per day: 14.14564494
mean anomaly at epoch: 157.1179°
orbit number at epoch: 27867

The dashed part of the orbit path shows where the satellite is in the earth's shadow,  

DLR